DW5057 Weather Reports


Display with metric or nautical units.
time (UTC)temp
F
wind
direction
speed
MPH
gust
MPH
rain 1hr
in
rain 24hr
in
rain mn
in
humidity
%
barometer
mb
20210920212017 72 68 6.0 15.0 0.00 0.00 0.00 53 1027.2
20210920211017 72 68 6.0 14.0 0.00 0.00 0.00 53 1027.2
20210920210016 73 68 5.0 12.0 0.00 0.00 0.00 52 1027.1
20210920205016 73 68 7.0 14.0 0.00 0.00 0.00 51 1027.1
20210920204016 73 113 9.0 15.0 0.00 0.00 0.00 50 1027.2
20210920203016 74 90 7.0 17.0 0.00 0.00 0.00 49 1027.2
20210920202017 73 68 8.0 20.0 0.00 0.00 0.00 50 1027.3
20210920201018 74 90 8.0 12.0 0.00 0.00 0.00 50 1027.4
20210920200016 74 90 7.0 15.0 0.00 0.00 0.00 51 1027.4
20210920195017 74 90 8.0 15.0 0.00 0.00 0.00 50 1027.5
20210920194017 74 68 6.0 14.0 0.00 0.00 0.00 51 1027.5
20210920193016 74 90 8.0 16.0 0.00 0.00 0.00 51 1027.5
20210920192016 74 90 8.0 16.0 0.00 0.00 0.00 51 1027.6
20210920191016 74 113 7.0 14.0 0.00 0.00 0.00 51 1027.6
20210920190017 75 113 8.0 15.0 0.00 0.00 0.00 51 1027.7
20210920185017 75 68 6.0 15.0 0.00 0.00 0.00 51 1027.8
20210920184016 75 113 7.0 16.0 0.00 0.00 0.00 51 1027.8
20210920183016 75 113 8.0 18.0 0.00 0.00 0.00 51 1027.9
20210920182016 75 113 7.0 14.0 0.00 0.00 0.00 51 1027.9
20210920181016 75 90 7.0 15.0 0.00 0.00 0.00 52 1027.9
20210920180016 75 113 7.0 13.0 0.00 0.00 0.00 51 1027.9
20210920175016 75 90 7.0 14.0 0.00 0.00 0.00 50 1028.0
20210920174016 75 113 7.0 13.0 0.00 0.00 0.00 52 1028.0
20210920173016 75 113 7.0 14.0 0.00 0.00 0.00 50 1028.1
20210920172016 75 113 7.0 15.0 0.00 0.00 0.00 50 1028.2
20210920171016 75 113 8.0 14.0 0.00 0.00 0.00 51 1028.3
20210920170017 75 113 8.0 14.0 0.00 0.00 0.00 51 1028.4
20210920165016 75 113 6.0 11.0 0.00 0.00 0.00 51 1028.5
20210920164016 75 113 7.0 17.0 0.00 0.00 0.00 51 1028.4
20210920163016 75 113 8.0 16.0 0.00 0.00 0.00 49 1028.5
20210920162016 75 113 7.0 12.0 0.00 0.00 0.00 50 1028.4
20210920161017 75 113 7.0 13.0 0.00 0.00 0.00 48 1028.4
20210920160016 75 113 6.0 16.0 0.00 0.00 0.00 49 1028.3
20210920155016 75 90 7.0 13.0 0.00 0.00 0.00 48 1028.2
20210920154016 75 113 6.0 13.0 0.00 0.00 0.00 49 1028.2
20210920153016 75 113 8.0 13.0 0.00 0.00 0.00 48 1028.3
20210920152016 74 135 7.0 15.0 0.00 0.00 0.00 51 1028.1
20210920151016 75 113 8.0 13.0 0.00 0.00 0.00 50 1028.1
20210920150016 74 113 7.0 15.0 0.00 0.00 0.00 51 1028.1
20210920145016 75 113 4.0 9.0 0.00 0.00 0.00 52 1028.0
20210920144016 74 90 6.0 11.0 0.00 0.00 0.00 51 1027.8
20210920143016 74 113 7.0 14.0 0.00 0.00 0.00 50 1027.7
20210920142016 74 113 6.0 12.0 0.00 0.00 0.00 52 1027.8
20210920141016 74 113 6.0 13.0 0.00 0.00 0.00 53 1027.6
20210920140016 74 113 5.0 11.0 0.00 0.00 0.00 53 1027.5
20210920135016 74 113 6.0 13.0 0.00 0.00 0.00 54 1027.4
20210920134016 73 113 6.0 12.0 0.00 0.00 0.00 55 1027.2
20210920133016 74 135 5.0 11.0 0.00 0.00 0.00 55 1027.2
20210920132016 73 113 5.0 11.0 0.00 0.00 0.00 55 1027.1
20210920131017 74 113 4.0 9.0 0.00 0.00 0.00 54 1026.9
20210920130016 73 113 4.0 10.0 0.00 0.00 0.00 55 1026.9
20210920125016 73 113 4.0 9.0 0.00 0.00 0.00 57 1026.7
20210920124016 73 113 5.0 10.0 0.00 0.00 0.00 57 1026.6
20210920123016 72 113 5.0 11.0 0.00 0.00 0.00 58 1026.5
20210920122016 71 68 3.0 8.0 0.00 0.00 0.00 62 1026.5
20210920121016 70 68 1.0 4.0 0.00 0.00 0.00 64 1026.4
20210920120016 69 0.0 3.0 0.00 0.00 0.00 65 1026.3
20210920115016 68 0.0 2.0 0.00 0.00 0.00 67 1026.4
20210920114016 67 0.0 3.0 0.00 0.00 0.00 70 1026.4
20210920113016 66 0.0 1.0 0.00 0.00 0.00 72 1026.3
20210920112016 65 90 1.0 3.0 0.00 0.00 0.00 74 1026.2
20210920111016 64 0.0 0.0 0.00 0.00 0.00 74 1026.2
20210920110016 64 90 1.0 6.0 0.00 0.00 0.00 74 1026.1
20210920105016 64 90 1.0 4.0 0.00 0.00 0.00 75 1025.9
20210920104016 64 90 2.0 6.0 0.00 0.00 0.00 76 1025.8
20210920103016 64 90 1.0 3.0 0.00 0.00 0.00 77 1025.8
20210920102016 63 0.0 2.0 0.00 0.00 0.00 76 1025.8
20210920101016 63 0.0 2.0 0.00 0.00 0.00 76 1025.8
20210920100016 63 0.0 2.0 0.00 0.00 0.00 76 1025.6
20210920095016 63 0.0 0.0 0.00 0.00 0.00 76 1025.4
20210920094016 63 0.0 0.0 0.00 0.00 0.00 75 1025.4
20210920093016 63 0.0 0.0 0.00 0.00 0.00 74 1025.4
20210920092016 63 0.0 0.0 0.00 0.00 0.00 74 1025.3
20210920091015 63 0.0 0.0 0.00 0.00 0.00 74 1025.3
20210920090016 63 0.0 0.0 0.00 0.00 0.00 73 1025.4
20210920085015 64 0.0 0.0 0.00 0.00 0.00 72 1025.5
20210920084015 64 0.0 0.0 0.00 0.00 0.00 72 1025.4
20210920083015 64 0.0 0.0 0.00 0.00 0.00 72 1025.2
20210920082016 64 0.0 0.0 0.00 0.00 0.00 71 1025.1
20210920081015 64 0.0 1.0 0.00 0.00 0.00 71 1025.2
20210920080016 64 0.0 0.0 0.00 0.00 0.00 70 1025.2
20210920075015 65 0.0 0.0 0.00 0.00 0.00 69 1025.2
20210920074015 66 0.0 1.0 0.00 0.00 0.00 68 1025.2
20210920073017 66 90 1.0 2.0 0.00 0.00 0.00 68 1025.1
20210920072016 66 90 2.0 3.0 0.00 0.00 0.00 68 1025.1
20210920071015 66 90 2.0 3.0 0.00 0.00 0.00 68 1025.2
20210920070017 66 90 2.0 4.0 0.00 0.00 0.00 68 1025.2
20210920065015 66 90 2.0 4.0 0.00 0.00 0.00 67 1025.1
20210920064015 66 90 2.0 4.0 0.00 0.00 0.00 67 1025.2
20210920063016 66 90 2.0 4.0 0.00 0.00 0.00 67 1025.1
20210920062015 66 68 2.0 4.0 0.00 0.00 0.00 66 1025.1
20210920061015 66 68 2.0 3.0 0.00 0.00 0.00 66 1025.2
20210920060015 67 90 2.0 4.0 0.00 0.00 0.00 66 1025.2
20210920055015 67 0.0 0.0 0.00 0.00 0.00 66 1025.1
20210920054015 67 90 2.0 3.0 0.00 0.00 0.00 66 1025.2
20210920053015 67 90 2.0 4.0 0.00 0.00 0.00 67 1025.2
20210920052015 67 90 1.0 3.0 0.00 0.00 0.00 68 1025.3
20210920051016 67 90 1.0 3.0 0.00 0.00 0.00 68 1025.2
20210920050015 67 68 1.0 3.0 0.00 0.00 0.00 68 1025.1
20210920045015 67 68 1.0 3.0 0.00 0.00 0.00 68 1025.1
20210920044015 67 68 1.0 3.0 0.00 0.00 0.00 68 1025.0
20210920043015 67 68 2.0 4.0 0.00 0.00 0.00 68 1024.9
20210920042015 67 90 2.0 3.0 0.00 0.00 0.00 68 1024.9
20210920041015 67 90 2.0 4.0 0.00 0.00 0.00 68 1024.9
20210920040015 67 90 2.0 4.0 0.00 0.00 0.00 68 1024.9
20210920035017 67 90 2.0 6.0 0.00 0.00 0.00 68 1024.9
20210920034017 67 90 2.0 4.0 0.00 0.00 0.00 68 1024.9
20210920033017 67 113 1.0 3.0 0.00 0.00 0.00 68 1024.9
20210920032017 67 90 2.0 4.0 0.00 0.00 0.00 68 1024.8
20210920031017 67 90 2.0 6.0 0.00 0.00 0.00 68 1024.7
20210920030017 67 90 2.0 4.0 0.00 0.00 0.00 67 1024.6
20210920025017 68 90 2.0 6.0 0.00 0.00 0.00 67 1024.6
20210920024017 68 90 2.0 4.0 0.00 0.00 0.00 67 1024.6
20210920023017 68 113 2.0 4.0 0.00 0.00 0.00 66 1024.5
20210920022017 68 90 2.0 6.0 0.00 0.00 0.00 66 1024.5
20210920021017 68 68 3.0 6.0 0.00 0.00 0.00 66 1024.4
20210920020017 68 90 3.0 8.0 0.00 0.00 0.00 66 1024.3
20210920015017 67 90 2.0 7.0 0.00 0.00 0.00 66 1024.3
20210920014016 67 90 2.0 4.0 0.00 0.00 0.00 65 1024.2
20210920013017 68 113 2.0 4.0 0.00 0.00 0.00 65 1024.1
20210920012017 68 90 3.0 7.0 0.00 0.00 0.00 65 1024.1
20210920011018 68 90 2.0 6.0 0.00 0.00 0.00 65 1023.9
20210920010017 68 90 2.0 5.0 0.00 0.00 0.00 65 1023.9
20210920005017 68 68 2.0 7.0 0.00 0.00 0.00 64 1023.7
20210920004017 68 90 2.0 7.0 0.00 0.00 0.00 64 1023.7
20210920003017 68 90 3.0 7.0 0.00 0.00 0.00 64 1023.6
20210920002017 68 68 3.0 8.0 0.00 0.00 0.00 63 1023.5
20210920001016 68 68 3.0 7.0 0.00 0.00 0.00 63 1023.3
20210920000017 68 90 3.0 6.0 0.00 0.00 0.00 63 1023.1
20210919235016 68 90 4.0 9.0 0.00 0.00 0.00 62 1023.0
20210919234017 68 68 3.0 8.0 0.00 0.00 0.00 61 1022.9
20210919233017 69 90 3.0 5.0 0.00 0.00 0.00 60 1022.8
20210919232016 69 90 3.0 8.0 0.00 0.00 0.00 60 1022.8
20210919231017 69 90 4.0 8.0 0.00 0.00 0.00 58 1022.9
20210919230018 70 90 3.0 7.0 0.00 0.00 0.00 56 1022.8
20210919225018 70 68 4.0 10.0 0.00 0.00 0.00 55 1022.8
20210919224016 71 90 3.0 7.0 0.00 0.00 0.00 54 1022.7
20210919223017 71 113 3.0 6.0 0.00 0.00 0.00 52 1022.5
20210919222017 71 68 4.0 10.0 0.00 0.00 0.00 51 1022.5
20210919221016 72 90 4.0 9.0 0.00 0.00 0.00 50 1022.5
20210919220016 72 113 4.0 9.0 0.00 0.00 0.00 50 1022.4
20210919215017 72 68 4.0 10.0 0.00 0.00 0.00 49 1022.3
20210919214017 73 90 3.0 7.0 0.00 0.00 0.00 49 1022.3
20210919213016 73 90 4.0 9.0 0.00 0.00 0.00 49 1022.2